Regional Weather Roundup
Issued by NWS

Home | Current Version | Previous Version | Text Only | Print | Product List | Glossary Off
Versions: 1 2 3 4 5 6 7 8 9 10 11 12 13 14 15 16 17 18 19 20 21 22 23 24 25 26 27

000
ASUS45 KCYS 270810
RWRWY

WYOMING REGIONAL WEATHER ROUNDUP
NATIONAL WEATHER SERVICE CHEYENNE WY
200 AM MDT SAT AUG 27 2016

NOTE:  "FAIR" INDICATES FEW OR NO CLOUDS BELOW 12,000 FEET
WITH NO SIGNIFICANT WEATHER AND/OR OBSTRUCTIONS TO VISIBILITY.

WYZ001-270900-
YELLOWSTONE NATIONAL PARK

CITY           SKY/WX    TMP DP  RH WIND       PRES   REMARKS
LK YELLOWSTONE   N/A     37  31  78 W3        30.19S
W YELLOWSTONE  NOT AVBL

$$
WYZ002>013-054>058-071-098>099-270900-
NORTHERN WYOMING

CITY           SKY/WX    TMP DP  RH WIND       PRES   REMARKS
JACKSON        FAIR      37  27  65 N7        30.14R WCI  32
CODY           FAIR      54  43  66 SW10      30.02F
GREYBULL       FAIR      56  39  53 CALM      29.98S
WORLAND        FAIR      52  42  69 S8        29.99S
SHERIDAN       FAIR      54  47  77 CALM      29.98F
BUFFALO        FAIR      55  39  54 S5        30.04F
GILLETTE       MOCLDY    56  49  77 S6        30.02S
HULETT         FAIR      50  45  81 SW7       30.03S
NEWCASTLE      FAIR      55  48  76 E9        30.05R

$$
WYZ014>020-022>026-101>103-270900-
CENTRAL WYOMING

CITY           SKY/WX    TMP DP  RH WIND       PRES   REMARKS
BIG PINEY      FAIR      35  30  82 N7        30.18S WCI  29
PINEDALE       FAIR      34  30  86 CALM      30.19S
DUBOIS         FAIR      39  25  56 NW12      30.16S WCI  32
LANDER         FAIR      53  41  63 MISG      30.07R
RIVERTON       FAIR      49  43  80 NW6       30.06F
CASPER         FAIR      46  44  93 CALM      30.08R
DOUGLAS        FAIR      48  45  89 CALM      30.06F

$$
WYZ021-027>030-104>119-270900-
SOUTHERN WYOMING

CITY           SKY/WX    TMP DP  RH WIND       PRES   REMARKS
EVANSTON       FAIR      52  20  28 S7        30.20S
FORT BRIDGER   FAIR      57  23  26 SW12      30.22S
ROCK SPRINGS   FAIR      54  35  48 SW8       30.17R
DIXON          FAIR      53  39  59 CALM      30.23F
RAWLINS        FAIR      54  36  50 S7        30.17R
SARATOGA       FAIR      52  36  54 S3G9      30.20S
LARAMIE        FAIR      46  36  68 S7        30.18F
CHEYENNE       FAIR      53  46  77 W7        30.14F
TORRINGTON     FAIR      56  55  97 SE9G18    30.04S
PINE BLUFFS    FAIR      46  46 100 CALM      30.12F

$$




USA.gov is the U.S. government's official web portal to all federal, state and local government web resources and services.